Time,TemperatureF,DewpointF,PressureIn,WindDirection,WindDirectionDegrees,WindSpeedMPH,WindSpeedGustMPH,Humidity,HourlyPrecipIn,Conditions,Clouds,dailyrainin,SoftwareType,DateUTC
2013-08-08 00:00:00,72.3,71.7,29.97,WNW,291,0.0,0.0,98,0.00,,---,0.00,VWS V14.01,2013-08-08 04:00:00,
2013-08-08 00:01:00,72.3,71.7,29.97,WNW,291,0.0,0.0,98,0.00,,---,0.00,VWS V14.01,2013-08-08 04:01:00,
2013-08-08 00:06:00,72.3,71.7,29.97,WNW,291,0.0,0.0,98,0.00,,---,0.00,VWS V14.01,2013-08-08 04:06:00,
2013-08-08 00:11:00,72.3,71.7,29.97,WNW,291,0.0,0.0,98,0.00,,---,0.00,VWS V14.01,2013-08-08 04:11:00,
2013-08-08 00:16:00,72.2,71.6,29.97,WNW,291,0.0,0.0,98,0.00,,---,0.00,VWS V14.01,2013-08-08 04:16:00,
2013-08-08 00:21:00,72.2,71.6,29.97,WNW,291,0.0,0.0,98,0.00,,---,0.00,VWS V14.01,2013-08-08 04:21:00,
2013-08-08 00:26:00,72.2,71.6,29.97,WNW,291,0.0,1.0,98,0.00,,---,0.00,VWS V14.01,2013-08-08 04:26:00,
2013-08-08 00:30:00,72.5,71.9,29.97,WNW,291,0.0,0.0,98,0.00,,---,0.00,VWS V14.01,2013-08-08 04:30:00,
2013-08-08 00:31:00,72.2,71.6,29.97,WNW,291,0.0,0.0,98,0.00,,---,0.00,VWS V14.01,2013-08-08 04:31:00,
2013-08-08 00:36:00,72.3,71.4,29.96,WNW,291,0.0,0.0,97,0.00,,---,0.00,VWS V14.01,2013-08-08 04:36:00,
2013-08-08 00:41:00,72.2,71.3,29.96,WNW,291,0.0,0.0,97,0.00,,---,0.00,VWS V14.01,2013-08-08 04:41:00,
2013-08-08 00:46:00,72.0,71.1,29.96,WNW,291,0.0,0.0,97,0.00,,---,0.00,VWS V14.01,2013-08-08 04:46:00,
2013-08-08 00:51:00,72.0,71.4,29.97,WNW,291,0.0,0.0,98,0.00,,---,0.00,VWS V14.01,2013-08-08 04:51:00,
2013-08-08 00:56:00,71.8,71.2,29.97,WNW,291,0.0,0.0,98,0.00,,---,0.00,VWS V14.01,2013-08-08 04:56:00,
2013-08-08 01:00:00,72.3,71.7,29.97,WNW,291,0.0,0.0,98,0.00,,---,0.00,VWS V14.01,2013-08-08 05:00:00,
2013-08-08 01:01:00,71.8,71.2,29.97,WNW,291,0.0,0.0,98,0.00,,---,0.00,VWS V14.01,2013-08-08 05:01:00,
2013-08-08 01:06:00,71.9,71.3,29.97,WNW,291,0.0,0.0,98,0.00,,---,0.00,VWS V14.01,2013-08-08 05:06:00,
2013-08-08 01:11:00,71.9,71.3,29.97,WNW,291,0.0,0.0,98,0.00,,---,0.00,VWS V14.01,2013-08-08 05:11:00,
2013-08-08 01:16:00,71.7,71.1,29.97,WNW,291,0.0,0.0,98,0.00,,---,0.00,VWS V14.01,2013-08-08 05:16:00,
2013-08-08 01:21:00,71.7,71.1,29.97,WNW,291,0.0,0.0,98,0.00,,---,0.00,VWS V14.01,2013-08-08 05:21:00,
2013-08-08 01:26:00,71.6,71.0,29.97,WNW,291,0.0,0.0,98,0.00,,---,0.00,VWS V14.01,2013-08-08 05:26:00,
2013-08-08 01:30:00,71.4,70.8,29.96,WNW,291,0.0,0.0,98,0.00,,---,0.00,VWS V14.01,2013-08-08 05:30:00,
2013-08-08 01:31:00,71.5,70.9,29.96,WNW,291,0.0,0.0,98,0.00,,---,0.00,VWS V14.01,2013-08-08 05:31:00,
2013-08-08 01:36:00,71.5,70.9,29.97,WNW,291,0.0,0.0,98,0.00,,---,0.00,VWS V14.01,2013-08-08 05:36:00,
2013-08-08 01:41:00,71.4,70.8,29.96,WNW,291,0.0,0.0,98,0.00,,---,0.00,VWS V14.01,2013-08-08 05:41:00,
2013-08-08 01:46:00,71.3,70.7,29.96,WNW,291,0.0,0.0,98,0.00,,---,0.00,VWS V14.01,2013-08-08 05:46:00,
2013-08-08 01:51:00,71.3,70.7,29.96,WNW,291,0.0,0.0,98,0.00,,---,0.00,VWS V14.01,2013-08-08 05:51:00,
2013-08-08 01:56:00,71.2,70.6,29.96,WNW,291,0.0,0.0,98,0.00,,---,0.00,VWS V14.01,2013-08-08 05:56:00,
2013-08-08 02:00:00,71.3,70.7,29.96,WNW,291,0.0,0.0,98,0.00,,---,0.00,VWS V14.01,2013-08-08 06:00:00,
2013-08-08 02:01:00,71.2,70.6,29.96,WNW,291,0.0,0.0,98,0.00,,---,0.00,VWS V14.01,2013-08-08 06:01:00,
2013-08-08 02:06:00,71.2,70.6,29.97,WNW,291,0.0,0.0,98,0.00,,---,0.00,VWS V14.01,2013-08-08 06:06:00,
2013-08-08 02:11:00,71.2,70.6,29.97,WNW,291,0.0,0.0,98,0.00,,---,0.00,VWS V14.01,2013-08-08 06:11:00,
2013-08-08 02:16:00,71.3,70.7,29.96,WNW,291,0.0,0.0,98,0.00,,---,0.00,VWS V14.01,2013-08-08 06:16:00,
2013-08-08 02:21:00,71.2,70.6,29.96,WNW,291,0.0,0.0,98,0.00,,---,0.00,VWS V14.01,2013-08-08 06:21:00,
2013-08-08 02:26:00,71.1,70.5,29.96,WNW,291,0.0,0.0,98,0.00,,---,0.00,VWS V14.01,2013-08-08 06:26:00,
2013-08-08 02:30:00,71.4,70.8,29.96,WNW,291,0.0,0.0,98,0.00,,---,0.00,VWS V14.01,2013-08-08 06:30:00,
2013-08-08 02:31:00,71.1,70.5,29.96,WNW,291,0.0,0.0,98,0.00,,---,0.00,VWS V14.01,2013-08-08 06:31:00,
2013-08-08 02:36:00,71.1,70.5,29.96,WNW,291,0.0,0.0,98,0.00,,---,0.00,VWS V14.01,2013-08-08 06:36:00,
2013-08-08 02:41:00,71.1,70.5,29.96,WNW,291,0.0,0.0,98,0.00,,---,0.00,VWS V14.01,2013-08-08 06:41:00,
2013-08-08 02:46:00,71.2,70.6,29.96,WNW,291,0.0,0.0,98,0.00,,---,0.00,VWS V14.01,2013-08-08 06:46:00,
2013-08-08 02:51:00,71.1,70.5,29.96,WNW,291,0.0,0.0,98,0.00,,---,0.00,VWS V14.01,2013-08-08 06:51:00,
2013-08-08 02:56:00,71.1,70.5,29.96,WNW,291,0.0,0.0,98,0.00,,---,0.00,VWS V14.01,2013-08-08 06:56:00,
2013-08-08 03:00:00,71.1,70.5,29.96,WNW,291,0.0,0.0,98,0.00,,---,0.00,VWS V14.01,2013-08-08 07:00:00,
2013-08-08 03:01:00,71.1,70.5,29.96,WNW,291,0.0,0.0,98,0.00,,---,0.00,VWS V14.01,2013-08-08 07:01:00,
2013-08-08 03:06:00,71.1,70.5,29.96,WNW,291,0.0,0.0,98,0.00,,---,0.00,VWS V14.01,2013-08-08 07:06:00,
2013-08-08 03:11:00,71.0,70.4,29.96,WNW,291,0.0,0.0,98,0.00,,---,0.00,VWS V14.01,2013-08-08 07:11:00,
2013-08-08 03:16:00,70.9,70.3,29.96,WNW,291,0.0,0.0,98,0.00,,---,0.00,VWS V14.01,2013-08-08 07:16:00,
2013-08-08 03:21:00,70.9,70.3,29.96,WNW,291,0.0,0.0,98,0.00,,---,0.00,VWS V14.01,2013-08-08 07:21:00,
2013-08-08 03:26:00,70.8,70.2,29.95,WNW,291,0.0,0.0,98,0.00,,---,0.00,VWS V14.01,2013-08-08 07:26:00,
2013-08-08 03:30:00,70.8,70.2,29.96,WNW,291,0.0,0.0,98,0.00,,---,0.00,VWS V14.01,2013-08-08 07:30:00,
2013-08-08 03:31:00,70.8,70.2,29.95,WNW,291,0.0,0.0,98,0.00,,---,0.00,VWS V14.01,2013-08-08 07:31:00,
2013-08-08 03:36:00,70.7,70.1,29.96,WNW,291,0.0,0.0,98,0.00,,---,0.00,VWS V14.01,2013-08-08 07:36:00,
2013-08-08 03:41:00,70.6,70.0,29.95,WNW,291,0.0,0.0,98,0.00,,---,0.00,VWS V14.01,2013-08-08 07:41:00,
2013-08-08 03:46:00,70.5,69.9,29.96,WNW,291,0.0,0.0,98,0.00,,---,0.00,VWS V14.01,2013-08-08 07:46:00,
2013-08-08 03:51:00,70.5,70.2,29.96,WNW,291,0.0,0.0,99,0.00,,---,0.00,VWS V14.01,2013-08-08 07:51:00,
2013-08-08 03:56:00,70.4,69.8,29.96,WNW,291,0.0,0.0,98,0.00,,---,0.00,VWS V14.01,2013-08-08 07:56:00,
2013-08-08 04:00:00,70.4,69.8,29.96,WNW,291,0.0,0.0,98,0.00,,---,0.00,VWS V14.01,2013-08-08 08:00:00,
2013-08-08 04:01:00,70.4,69.8,29.96,WNW,291,0.0,0.0,98,0.00,,---,0.00,VWS V14.01,2013-08-08 08:01:00,
2013-08-08 04:06:00,70.4,69.8,29.96,WNW,291,0.0,0.0,98,0.00,,---,0.00,VWS V14.01,2013-08-08 08:06:00,
2013-08-08 04:11:00,70.3,69.7,29.96,WNW,291,0.0,0.0,98,0.00,,---,0.00,VWS V14.01,2013-08-08 08:11:00,
2013-08-08 04:16:00,70.2,69.6,29.96,WNW,291,0.0,0.0,98,0.00,,---,0.00,VWS V14.01,2013-08-08 08:16:00,
2013-08-08 04:21:00,70.2,69.6,29.96,WNW,291,0.0,0.0,98,0.00,,---,0.00,VWS V14.01,2013-08-08 08:21:00,
2013-08-08 04:26:00,70.2,69.6,29.96,WNW,291,0.0,0.0,98,0.00,,---,0.00,VWS V14.01,2013-08-08 08:26:00,
2013-08-08 04:30:00,70.1,69.8,29.96,WNW,291,0.0,0.0,99,0.00,,---,0.00,VWS V14.01,2013-08-08 08:30:00,
2013-08-08 04:31:00,70.1,69.8,29.96,WNW,291,0.0,0.0,99,0.00,,---,0.00,VWS V14.01,2013-08-08 08:31:00,
2013-08-08 04:36:00,70.0,69.7,29.95,WNW,291,0.0,0.0,99,0.00,,---,0.00,VWS V14.01,2013-08-08 08:36:00,
2013-08-08 04:41:00,69.9,69.6,29.96,WNW,291,0.0,0.0,99,0.00,,---,0.00,VWS V14.01,2013-08-08 08:41:00,
2013-08-08 04:46:00,70.0,69.7,29.96,WNW,291,0.0,0.0,99,0.00,,---,0.00,VWS V14.01,2013-08-08 08:46:00,
2013-08-08 04:51:00,70.0,69.7,29.95,WNW,291,0.0,0.0,99,0.00,,---,0.00,VWS V14.01,2013-08-08 08:51:00,
2013-08-08 04:56:00,69.8,69.5,29.95,WNW,291,0.0,0.0,99,0.00,,---,0.00,VWS V14.01,2013-08-08 08:56:00,
2013-08-08 05:00:00,69.8,69.2,29.95,WNW,291,0.0,0.0,98,0.00,,---,0.00,VWS V14.01,2013-08-08 09:00:00,
2013-08-08 05:01:00,69.8,69.2,29.96,WNW,291,0.0,0.0,98,0.00,,---,0.00,VWS V14.01,2013-08-08 09:01:00,
2013-08-08 05:06:00,69.8,69.2,29.96,WNW,291,0.0,0.0,98,0.00,,---,0.00,VWS V14.01,2013-08-08 09:06:00,
2013-08-08 05:11:00,69.8,69.2,29.96,WNW,291,0.0,0.0,98,0.00,,---,0.00,VWS V14.01,2013-08-08 09:11:00,
2013-08-08 05:16:00,69.7,69.4,29.97,WNW,291,0.0,0.0,99,0.00,,---,0.00,VWS V14.01,2013-08-08 09:16:00,
2013-08-08 05:21:00,69.7,69.4,29.97,WNW,291,0.0,0.0,99,0.00,,---,0.00,VWS V14.01,2013-08-08 09:21:00,
2013-08-08 05:26:00,69.6,69.0,29.97,WNW,291,0.0,0.0,98,0.00,,---,0.00,VWS V14.01,2013-08-08 09:26:00,
2013-08-08 05:30:00,69.7,69.1,29.97,WNW,291,0.0,0.0,98,0.00,,---,0.00,VWS V14.01,2013-08-08 09:30:00,
2013-08-08 05:31:00,69.7,69.4,29.97,WNW,291,0.0,0.0,99,0.00,,---,0.00,VWS V14.01,2013-08-08 09:31:00,
2013-08-08 05:36:00,69.7,69.4,29.97,WNW,291,0.0,0.0,99,0.00,,---,0.00,VWS V14.01,2013-08-08 09:36:00,
2013-08-08 05:41:00,69.7,69.1,29.97,WNW,291,0.0,0.0,98,0.00,,---,0.00,VWS V14.01,2013-08-08 09:41:00,
2013-08-08 05:46:00,69.4,69.1,29.97,WNW,291,0.0,0.0,99,0.00,,---,0.00,VWS V14.01,2013-08-08 09:46:00,
2013-08-08 05:51:00,69.5,69.2,29.97,WNW,291,0.0,0.0,99,0.00,,---,0.00,VWS V14.01,2013-08-08 09:51:00,
2013-08-08 05:56:00,69.6,69.3,29.97,WNW,291,0.0,0.0,99,0.00,,---,0.00,VWS V14.01,2013-08-08 09:56:00,
2013-08-08 06:00:00,69.7,69.4,29.97,WNW,291,0.0,0.0,99,0.00,,---,0.00,VWS V14.01,2013-08-08 10:00:00,
2013-08-08 06:01:00,69.6,69.3,29.97,WNW,291,0.0,0.0,99,0.00,,---,0.00,VWS V14.01,2013-08-08 10:01:00,
2013-08-08 06:06:00,69.6,69.3,29.97,WNW,291,0.0,0.0,99,0.00,,---,0.00,VWS V14.01,2013-08-08 10:06:00,
2013-08-08 06:11:00,69.5,69.2,29.97,WNW,291,0.0,0.0,99,0.00,,---,0.00,VWS V14.01,2013-08-08 10:11:00,
2013-08-08 06:16:00,69.3,69.0,29.97,WNW,291,0.0,0.0,99,0.00,,---,0.00,VWS V14.01,2013-08-08 10:16:00,
2013-08-08 06:21:00,69.3,69.0,29.97,WNW,291,0.0,0.0,99,0.00,,---,0.00,VWS V14.01,2013-08-08 10:21:00,
2013-08-08 06:26:00,69.3,69.0,29.97,WNW,291,0.0,0.0,99,0.00,,---,0.00,VWS V14.01,2013-08-08 10:26:00,
2013-08-08 06:30:00,69.2,68.9,29.97,WNW,291,0.0,0.0,99,0.00,,---,0.00,VWS V14.01,2013-08-08 10:30:00,
2013-08-08 06:31:00,69.2,68.9,29.97,WNW,291,0.0,0.0,99,0.00,,---,0.00,VWS V14.01,2013-08-08 10:31:00,
2013-08-08 06:36:00,69.1,68.8,29.97,WNW,291,0.0,0.0,99,0.00,,---,0.00,VWS V14.01,2013-08-08 10:36:00,
2013-08-08 06:41:00,69.0,68.7,29.97,WNW,291,0.0,0.0,99,0.00,,---,0.00,VWS V14.01,2013-08-08 10:41:00,
2013-08-08 06:46:00,68.9,68.6,29.97,WNW,291,0.0,0.0,99,0.00,,---,0.00,VWS V14.01,2013-08-08 10:46:00,
2013-08-08 06:51:00,69.0,68.7,29.97,WNW,291,0.0,0.0,99,0.00,,---,0.00,VWS V14.01,2013-08-08 10:51:00,
2013-08-08 06:56:00,68.9,68.6,29.97,WNW,291,0.0,0.0,99,0.00,,---,0.00,VWS V14.01,2013-08-08 10:56:00,
2013-08-08 07:00:00,68.9,68.6,29.97,WNW,291,0.0,0.0,99,0.00,,---,0.00,VWS V14.01,2013-08-08 11:00:00,
2013-08-08 07:01:00,68.9,68.6,29.97,WNW,291,0.0,0.0,99,0.00,,---,0.00,VWS V14.01,2013-08-08 11:01:00,
2013-08-08 07:06:00,68.8,68.5,29.97,WNW,291,0.0,0.0,99,0.00,,---,0.00,VWS V14.01,2013-08-08 11:06:00,
2013-08-08 07:11:00,69.0,68.7,29.97,WNW,291,0.0,0.0,99,0.00,,---,0.00,VWS V14.01,2013-08-08 11:11:00,
2013-08-08 07:16:00,69.0,68.7,29.97,WNW,291,0.0,0.0,99,0.00,,---,0.00,VWS V14.01,2013-08-08 11:16:00,
2013-08-08 07:21:00,69.0,68.7,29.97,WNW,291,0.0,0.0,99,0.00,,---,0.00,VWS V14.01,2013-08-08 11:21:00,
2013-08-08 07:26:00,69.3,69.0,29.97,WNW,291,0.0,0.0,99,0.00,,---,0.00,VWS V14.01,2013-08-08 11:26:00,
2013-08-08 07:30:00,69.5,69.2,29.96,WNW,291,0.0,0.0,99,0.00,,---,0.00,VWS V14.01,2013-08-08 11:30:00,
2013-08-08 07:31:00,69.6,69.3,29.96,WNW,291,0.0,0.0,99,0.00,,---,0.00,VWS V14.01,2013-08-08 11:31:00,
2013-08-08 07:36:00,69.6,69.3,29.96,WNW,291,0.0,0.0,99,0.00,,---,0.00,VWS V14.01,2013-08-08 11:36:00,
2013-08-08 07:41:00,69.6,69.3,29.97,WNW,291,0.0,0.0,99,0.00,,---,0.00,VWS V14.01,2013-08-08 11:41:00,
2013-08-08 07:46:00,69.8,69.5,29.97,WNW,291,0.0,0.0,99,0.00,,---,0.00,VWS V14.01,2013-08-08 11:46:00,
2013-08-08 07:51:00,70.1,69.8,29.97,WNW,291,0.0,0.0,99,0.00,,---,0.00,VWS V14.01,2013-08-08 11:51:00,
2013-08-08 07:56:00,70.4,70.1,29.97,WNW,291,0.0,0.0,99,0.00,,---,0.00,VWS V14.01,2013-08-08 11:56:00,
2013-08-08 08:00:00,70.7,70.4,29.97,WNW,291,0.0,0.0,99,0.00,,---,0.00,VWS V14.01,2013-08-08 12:00:00,
2013-08-08 08:01:00,70.8,70.5,29.97,WNW,291,0.0,0.0,99,0.00,,---,0.00,VWS V14.01,2013-08-08 12:01:00,
2013-08-08 08:06:00,71.3,71.0,29.97,WNW,291,0.0,0.0,99,0.00,,---,0.00,VWS V14.01,2013-08-08 12:06:00,
2013-08-08 08:11:00,71.8,71.5,29.97,WNW,291,0.0,0.0,99,0.00,,---,0.00,VWS V14.01,2013-08-08 12:11:00,
2013-08-08 08:16:00,72.6,72.3,29.97,WNW,291,0.0,0.0,99,0.00,,---,0.00,VWS V14.01,2013-08-08 12:16:00,
2013-08-08 08:21:00,73.1,72.8,29.97,WNW,291,0.0,0.0,99,0.00,,---,0.00,VWS V14.01,2013-08-08 12:21:00,
2013-08-08 08:26:00,73.8,73.2,29.98,WNW,291,1.0,2.0,98,0.00,,---,0.00,VWS V14.01,2013-08-08 12:26:00,
2013-08-08 08:30:00,74.4,73.5,29.98,WNW,291,0.0,2.0,97,0.00,,---,0.00,VWS V14.01,2013-08-08 12:30:00,
2013-08-08 08:31:00,74.4,73.5,29.98,WNW,291,0.0,0.0,97,0.00,,---,0.00,VWS V14.01,2013-08-08 12:31:00,
2013-08-08 08:36:00,74.7,73.2,29.98,WNW,291,0.0,4.0,95,0.00,,---,0.00,VWS V14.01,2013-08-08 12:36:00,
2013-08-08 08:41:00,74.8,73.3,29.98,WNW,291,0.0,4.0,95,0.00,,---,0.00,VWS V14.01,2013-08-08 12:41:00,
2013-08-08 08:46:00,74.9,73.4,29.98,WNW,291,0.0,4.0,95,0.00,,---,0.00,VWS V14.01,2013-08-08 12:46:00,
2013-08-08 08:51:00,75.2,73.4,29.98,WNW,291,0.0,4.0,94,0.00,,---,0.00,VWS V14.01,2013-08-08 12:51:00,
2013-08-08 08:56:00,75.2,73.4,29.98,WNW,291,0.0,4.0,94,0.00,,---,0.00,VWS V14.01,2013-08-08 12:56:00,
2013-08-08 09:00:00,75.2,73.7,29.98,WNW,291,0.0,4.0,95,0.00,,---,0.00,VWS V14.01,2013-08-08 13:00:00,
2013-08-08 09:01:00,75.2,73.7,29.98,WNW,291,0.0,0.0,95,0.00,,---,0.00,VWS V14.01,2013-08-08 13:01:00,
2013-08-08 09:06:00,75.3,73.5,29.98,WNW,291,0.0,0.0,94,0.00,,---,0.00,VWS V14.01,2013-08-08 13:06:00,
2013-08-08 09:10:00,75.7,73.8,29.98,WNW,291,0.0,1.0,94,0.00,,---,0.00,VWS V14.01,2013-08-08 13:10:00,
2013-08-08 09:15:00,76.1,73.9,29.98,WNW,291,0.0,1.0,93,0.00,,---,0.00,VWS V14.01,2013-08-08 13:15:00,
2013-08-08 09:20:00,75.9,73.7,29.98,WNW,291,0.0,1.0,93,0.00,,---,0.00,VWS V14.01,2013-08-08 13:20:00,
2013-08-08 09:25:00,76.1,73.6,29.98,WNW,291,0.0,3.0,92,0.00,,---,0.00,VWS V14.01,2013-08-08 13:25:00,
2013-08-08 09:30:00,76.4,73.9,29.98,WNW,290,0.0,1.0,92,0.00,,---,0.00,VWS V14.01,2013-08-08 13:30:00,
2013-08-08 09:35:00,76.5,73.7,29.98,WNW,290,0.0,2.0,91,0.00,,---,0.00,VWS V14.01,2013-08-08 13:35:00,
2013-08-08 09:40:00,76.7,73.6,29.98,WNW,288,3.0,3.0,90,0.00,,---,0.00,VWS V14.01,2013-08-08 13:40:00,
2013-08-08 09:45:00,76.9,73.1,29.98,WNW,286,0.0,3.0,88,0.00,,---,0.00,VWS V14.01,2013-08-08 13:45:00,
2013-08-08 09:50:00,76.7,73.2,29.98,WNW,286,0.0,3.0,89,0.00,,---,0.00,VWS V14.01,2013-08-08 13:50:00,
2013-08-08 09:55:00,76.9,73.4,29.98,WNW,286,0.0,3.0,89,0.00,,---,0.00,VWS V14.01,2013-08-08 13:55:00,
2013-08-08 10:00:00,76.8,73.7,29.98,WNW,286,0.0,0.0,90,0.00,,---,0.00,VWS V14.01,2013-08-08 14:00:00,
2013-08-08 10:05:00,77.6,74.8,29.98,WNW,286,0.0,1.0,91,0.00,,---,0.00,VWS V14.01,2013-08-08 14:05:00,
2013-08-08 10:10:00,77.7,73.9,29.98,WNW,286,2.0,2.0,88,0.00,,---,0.00,VWS V14.01,2013-08-08 14:10:00,
2013-08-08 10:15:00,77.4,73.6,29.98,WNW,286,1.0,3.0,88,0.00,,---,0.00,VWS V14.01,2013-08-08 14:15:00,
2013-08-08 10:20:00,77.5,73.0,29.98,WNW,286,0.0,4.0,86,0.00,,---,0.00,VWS V14.01,2013-08-08 14:20:00,
2013-08-08 10:25:00,77.9,74.1,29.98,WNW,286,1.0,4.0,88,0.00,,---,0.00,VWS V14.01,2013-08-08 14:25:00,
2013-08-08 10:30:00,78.5,73.6,29.99,WNW,286,0.0,0.0,85,0.00,,---,0.00,VWS V14.01,2013-08-08 14:30:00,
2013-08-08 10:35:00,78.5,73.6,29.99,WNW,286,0.0,3.0,85,0.00,,---,0.00,VWS V14.01,2013-08-08 14:35:00,
2013-08-08 10:40:00,78.1,73.2,29.99,WNW,286,1.0,3.0,85,0.00,,---,0.00,VWS V14.01,2013-08-08 14:40:00,
2013-08-08 10:45:00,78.1,72.5,29.99,WNW,286,2.0,4.0,83,0.00,,---,0.00,VWS V14.01,2013-08-08 14:45:00,
2013-08-08 10:50:00,77.8,72.9,29.99,WNW,286,0.0,4.0,85,0.00,,---,0.00,VWS V14.01,2013-08-08 14:50:00,
2013-08-08 10:55:00,77.5,73.0,29.98,WNW,286,0.0,4.0,86,0.00,,---,0.00,VWS V14.01,2013-08-08 14:55:00,
2013-08-08 11:00:00,78.1,72.9,29.98,West,267,0.0,0.0,84,0.00,,---,0.00,VWS V14.01,2013-08-08 15:00:00,
2013-08-08 11:05:00,79.3,73.3,29.98,West,268,1.0,3.0,82,0.00,,---,0.00,VWS V14.01,2013-08-08 15:05:00,
2013-08-08 11:10:00,79.6,72.9,29.98,West,265,1.0,3.0,80,0.00,,---,0.00,VWS V14.01,2013-08-08 15:10:00,
2013-08-08 11:15:00,79.4,73.1,29.99,West,259,0.0,4.0,81,0.00,,---,0.00,VWS V14.01,2013-08-08 15:15:00,
2013-08-08 11:20:00,80.1,73.4,29.98,WNW,287,2.0,5.0,80,0.00,,---,0.00,VWS V14.01,2013-08-08 15:20:00,
2013-08-08 11:25:00,80.9,73.8,29.98,WNW,288,0.0,5.0,79,0.00,,---,0.00,VWS V14.01,2013-08-08 15:25:00,
2013-08-08 11:30:00,81.2,74.8,29.98,WNW,300,0.0,1.0,81,0.00,,---,0.00,VWS V14.01,2013-08-08 15:30:00,
2013-08-08 11:35:00,81.1,73.6,29.98,WNW,299,1.0,3.0,78,0.00,,---,0.00,VWS V14.01,2013-08-08 15:35:00,
2013-08-08 11:40:00,81.0,73.9,29.98,West,266,1.0,5.0,79,0.00,,---,0.00,VWS V14.01,2013-08-08 15:40:00,
2013-08-08 11:45:00,80.4,73.3,29.98,West,266,1.0,5.0,79,0.00,,---,0.00,VWS V14.01,2013-08-08 15:45:00,
2013-08-08 11:50:00,81.3,74.9,29.98,West,266,0.0,5.0,81,0.00,,---,0.00,VWS V14.01,2013-08-08 15:50:00,
2013-08-08 11:55:00,82.1,74.9,29.98,West,266,1.0,5.0,79,0.00,,---,0.00,VWS V14.01,2013-08-08 15:55:00,
2013-08-08 12:00:00,82.4,73.7,29.98,North,360,0.0,1.0,75,0.00,,---,0.00,VWS V14.01,2013-08-08 16:00:00,
2013-08-08 12:05:00,83.2,74.8,29.98,North,5,0.0,2.0,76,0.00,,---,0.00,VWS V14.01,2013-08-08 16:05:00,
2013-08-08 12:10:00,82.7,73.6,29.98,WNW,292,3.0,3.0,74,0.00,,---,0.00,VWS V14.01,2013-08-08 16:10:00,
2013-08-08 12:15:00,81.5,73.2,29.98,WNW,292,0.0,3.0,76,0.00,,---,0.00,VWS V14.01,2013-08-08 16:15:00,
2013-08-08 12:20:00,81.0,74.2,29.98,WNW,292,0.0,3.0,80,0.00,,---,0.00,VWS V14.01,2013-08-08 16:20:00,
2013-08-08 12:25:00,81.7,74.6,29.98,WNW,292,0.0,3.0,79,0.00,,---,0.00,VWS V14.01,2013-08-08 16:25:00,
2013-08-08 12:30:00,81.4,74.3,29.98,WNW,292,0.0,0.0,79,0.00,,---,0.00,VWS V14.01,2013-08-08 16:30:00,
2013-08-08 12:35:00,81.6,74.5,29.98,West,259,0.0,3.0,79,0.00,,---,0.00,VWS V14.01,2013-08-08 16:35:00,
2013-08-08 12:40:00,82.6,74.7,29.98,WSW,254,2.0,5.0,77,0.00,,---,0.00,VWS V14.01,2013-08-08 16:40:00,
2013-08-08 12:45:00,82.6,73.9,29.98,WSW,254,2.0,5.0,75,0.00,,---,0.00,VWS V14.01,2013-08-08 16:45:00,
2013-08-08 12:50:00,82.7,74.0,29.98,WSW,254,0.0,5.0,75,0.00,,---,0.00,VWS V14.01,2013-08-08 16:50:00,
2013-08-08 12:55:00,82.7,74.0,29.97,WSW,250,2.0,5.0,75,0.00,,---,0.00,VWS V14.01,2013-08-08 16:55:00,
2013-08-08 13:00:00,82.7,74.4,29.97,WSW,250,0.0,0.0,76,0.00,,---,0.00,VWS V14.01,2013-08-08 17:00:00,
2013-08-08 13:05:00,82.5,73.4,29.97,WSW,250,1.0,2.0,74,0.00,,---,0.00,VWS V14.01,2013-08-08 17:05:00,
2013-08-08 13:10:00,83.5,72.7,29.97,WSW,255,1.0,5.0,70,0.00,,---,0.00,VWS V14.01,2013-08-08 17:10:00,
2013-08-08 13:15:00,83.5,73.1,29.97,WSW,255,2.0,5.0,71,0.00,,---,0.00,VWS V14.01,2013-08-08 17:15:00,
2013-08-08 13:20:00,83.9,73.1,29.97,West,267,3.0,5.0,70,0.00,,---,0.00,VWS V14.01,2013-08-08 17:20:00,
2013-08-08 13:25:00,84.3,74.3,29.97,West,267,0.0,5.0,72,0.00,,---,0.00,VWS V14.01,2013-08-08 17:25:00,
2013-08-08 13:30:00,83.8,73.8,29.96,West,269,1.0,2.0,72,0.00,,---,0.00,VWS V14.01,2013-08-08 17:30:00,
2013-08-08 13:35:00,83.9,73.5,29.97,WSW,254,0.0,6.0,71,0.00,,---,0.00,VWS V14.01,2013-08-08 17:35:00,
2013-08-08 13:40:00,84.4,74.0,29.96,WSW,254,1.0,6.0,71,0.00,,---,0.00,VWS V14.01,2013-08-08 17:40:00,
2013-08-08 13:45:00,84.8,73.1,29.96,West,273,2.0,6.0,68,0.00,,---,0.00,VWS V14.01,2013-08-08 17:45:00,
2013-08-08 13:50:00,84.5,73.7,29.96,West,273,4.0,6.0,70,0.00,,---,0.00,VWS V14.01,2013-08-08 17:50:00,
2013-08-08 13:55:00,84.3,73.5,29.96,West,273,1.0,6.0,70,0.00,,---,0.00,VWS V14.01,2013-08-08 17:55:00,
2013-08-08 14:00:00,85.2,74.7,29.96,West,272,0.0,0.0,71,0.00,,---,0.00,VWS V14.01,2013-08-08 18:00:00,
2013-08-08 14:05:00,85.1,73.8,29.96,West,272,1.0,2.0,69,0.00,,---,0.00,VWS V14.01,2013-08-08 18:05:00,
2013-08-08 14:10:00,84.5,74.5,29.96,West,272,0.0,2.0,72,0.00,,---,0.00,VWS V14.01,2013-08-08 18:10:00,
2013-08-08 14:15:00,84.5,73.7,29.96,West,274,0.0,3.0,70,0.00,,---,0.00,VWS V14.01,2013-08-08 18:15:00,
2013-08-08 14:20:00,84.2,73.8,29.96,West,271,0.0,3.0,71,0.00,,---,0.00,VWS V14.01,2013-08-08 18:20:00,
2013-08-08 14:25:00,84.2,73.8,29.95,West,271,0.0,3.0,71,0.00,,---,0.00,VWS V14.01,2013-08-08 18:25:00,
2013-08-08 14:30:00,85.0,73.7,29.95,WSW,246,1.0,1.0,69,0.00,,---,0.00,VWS V14.01,2013-08-08 18:30:00,
2013-08-08 14:35:00,85.9,73.2,29.95,NW,326,2.0,3.0,66,0.00,,---,0.00,VWS V14.01,2013-08-08 18:35:00,
2013-08-08 14:40:00,86.6,74.3,29.95,WSW,241,3.0,3.0,67,0.00,,---,0.00,VWS V14.01,2013-08-08 18:40:00,
2013-08-08 14:45:00,85.3,74.0,29.94,WSW,241,1.0,3.0,69,0.00,,---,0.00,VWS V14.01,2013-08-08 18:45:00,
2013-08-08 14:50:00,85.1,74.2,29.94,West,266,0.0,4.0,70,0.00,,---,0.00,VWS V14.01,2013-08-08 18:50:00,
2013-08-08 14:51:00,85.1,73.4,29.94,West,266,0.0,4.0,68,0.00,,---,0.00,VWS V14.01,2013-08-08 18:51:00,
2013-08-08 14:56:00,85.0,74.1,29.94,West,266,0.0,4.0,70,0.00,,---,0.00,VWS V14.01,2013-08-08 18:56:00,
2013-08-08 15:00:00,85.1,73.4,29.94,West,266,0.0,4.0,68,0.00,,---,0.00,VWS V14.01,2013-08-08 19:00:00,
2013-08-08 15:01:00,85.1,73.4,29.94,West,266,0.0,0.0,68,0.00,,---,0.00,VWS V14.01,2013-08-08 19:01:00,
2013-08-08 15:06:00,84.5,75.7,29.94,West,266,0.0,1.0,75,0.00,,---,0.00,VWS V14.01,2013-08-08 19:06:00,
2013-08-08 15:11:00,83.8,75.8,29.94,West,263,4.0,4.0,77,0.00,,---,0.00,VWS V14.01,2013-08-08 19:11:00,
2013-08-08 15:16:00,84.1,76.5,29.93,SW,229,1.0,5.0,78,0.00,,---,0.00,VWS V14.01,2013-08-08 19:16:00,
2013-08-08 15:21:00,84.3,76.7,29.93,SW,229,1.0,5.0,78,0.00,,---,0.00,VWS V14.01,2013-08-08 19:21:00,
2013-08-08 15:26:00,85.0,76.2,29.93,WSW,238,0.0,5.0,75,0.00,,---,0.00,VWS V14.01,2013-08-08 19:26:00,
2013-08-08 15:30:00,85.1,76.7,29.93,WSW,248,0.0,5.0,76,0.00,,---,0.00,VWS V14.01,2013-08-08 19:30:00,
2013-08-08 15:31:00,85.2,76.8,29.93,WSW,248,0.0,0.0,76,0.00,,---,0.00,VWS V14.01,2013-08-08 19:31:00,
2013-08-08 15:36:00,85.9,76.7,29.93,WSW,248,1.0,2.0,74,0.00,,---,0.00,VWS V14.01,2013-08-08 19:36:00,
2013-08-08 15:41:00,86.4,76.3,29.93,West,263,0.0,4.0,72,0.00,,---,0.00,VWS V14.01,2013-08-08 19:41:00,
2013-08-08 15:46:00,85.4,75.3,29.93,West,263,0.0,4.0,72,0.00,,---,0.00,VWS V14.01,2013-08-08 19:46:00,
2013-08-08 15:51:00,85.3,74.4,29.93,West,266,1.0,5.0,70,0.00,,---,0.00,VWS V14.01,2013-08-08 19:51:00,
2013-08-08 15:56:00,86.1,75.2,29.93,West,267,2.0,5.0,70,0.00,,---,0.00,VWS V14.01,2013-08-08 19:56:00,
2013-08-08 16:00:00,86.5,75.1,29.92,West,281,3.0,5.0,69,0.00,,---,0.00,VWS V14.01,2013-08-08 20:00:00,
2013-08-08 16:01:00,86.5,75.1,29.92,West,281,0.0,3.0,69,0.00,,---,0.00,VWS V14.01,2013-08-08 20:01:00,
2013-08-08 16:06:00,86.7,74.9,29.93,West,281,0.0,3.0,68,0.00,,---,0.00,VWS V14.01,2013-08-08 20:06:00,
2013-08-08 16:11:00,86.5,76.0,29.92,West,281,2.0,3.0,71,0.00,,---,0.00,VWS V14.01,2013-08-08 20:11:00,
2013-08-08 16:16:00,85.4,75.3,29.92,West,281,0.0,3.0,72,0.00,,---,0.00,VWS V14.01,2013-08-08 20:16:00,
2013-08-08 16:21:00,84.1,76.1,29.92,West,281,0.0,3.0,77,0.00,,---,0.00,VWS V14.01,2013-08-08 20:21:00,
2013-08-08 16:26:00,84.0,76.0,29.92,West,281,0.0,3.0,77,0.00,,---,0.00,VWS V14.01,2013-08-08 20:26:00,
2013-08-08 16:30:00,84.1,76.1,29.92,West,281,0.0,3.0,77,0.00,,---,0.00,VWS V14.01,2013-08-08 20:30:00,
2013-08-08 16:31:00,84.0,76.4,29.92,West,281,0.0,0.0,78,0.00,,---,0.00,VWS V14.01,2013-08-08 20:31:00,
2013-08-08 16:36:00,84.5,73.7,29.91,NW,323,1.0,4.0,70,0.00,,---,0.00,VWS V14.01,2013-08-08 20:36:00,
2013-08-08 16:41:00,85.5,76.3,29.91,NW,307,0.0,4.0,74,0.00,,---,0.00,VWS V14.01,2013-08-08 20:41:00,
2013-08-08 16:46:00,84.9,75.7,29.91,NW,307,0.0,4.0,74,0.00,,---,0.00,VWS V14.01,2013-08-08 20:46:00,
2013-08-08 16:51:00,85.6,75.5,29.91,West,275,0.0,4.0,72,0.00,,---,0.00,VWS V14.01,2013-08-08 20:51:00,
2013-08-08 16:56:00,86.4,75.0,29.91,West,275,0.0,4.0,69,0.00,,---,0.00,VWS V14.01,2013-08-08 20:56:00,
2013-08-08 17:00:00,86.8,76.3,29.91,West,275,1.0,4.0,71,0.00,,---,0.00,VWS V14.01,2013-08-08 21:00:00,
2013-08-08 17:01:00,86.7,76.2,29.91,West,275,0.0,1.0,71,0.00,,---,0.00,VWS V14.01,2013-08-08 21:01:00,
2013-08-08 17:06:00,86.6,76.5,29.91,West,269,0.0,3.0,72,0.00,,---,0.00,VWS V14.01,2013-08-08 21:06:00,
2013-08-08 17:11:00,86.5,76.4,29.91,West,269,0.0,3.0,72,0.00,,---,0.00,VWS V14.01,2013-08-08 21:11:00,
2013-08-08 17:16:00,86.4,78.3,29.91,West,269,0.0,3.0,77,0.00,,---,0.00,VWS V14.01,2013-08-08 21:16:00,
2013-08-08 17:21:00,86.6,75.2,29.91,West,269,0.0,3.0,69,0.00,,---,0.00,VWS V14.01,2013-08-08 21:21:00,
2013-08-08 17:26:00,86.1,75.6,29.91,West,267,0.0,3.0,71,0.00,,---,0.00,VWS V14.01,2013-08-08 21:26:00,
2013-08-08 17:30:00,86.0,75.5,29.91,West,267,0.0,3.0,71,0.00,,---,0.00,VWS V14.01,2013-08-08 21:30:00,
2013-08-08 17:32:00,86.0,75.9,29.91,West,267,0.0,1.0,72,0.00,,---,0.00,VWS V14.01,2013-08-08 21:32:00,
2013-08-08 17:37:00,85.8,76.6,29.91,West,267,0.0,1.0,74,0.00,,---,0.00,VWS V14.01,2013-08-08 21:37:00,
2013-08-08 17:42:00,84.7,76.3,29.91,West,267,0.0,1.0,76,0.00,,---,0.00,VWS V14.01,2013-08-08 21:42:00,
2013-08-08 17:47:00,84.4,77.2,29.91,West,267,0.0,1.0,79,0.00,,---,0.00,VWS V14.01,2013-08-08 21:47:00,
2013-08-08 17:52:00,84.7,76.3,29.91,West,267,0.0,1.0,76,0.00,,---,0.00,VWS V14.01,2013-08-08 21:52:00,
2013-08-08 17:57:00,85.0,75.8,29.91,West,267,0.0,1.0,74,0.00,,---,0.00,VWS V14.01,2013-08-08 21:57:00,
2013-08-08 18:00:00,84.9,77.3,29.91,West,267,0.0,1.0,78,0.00,,---,0.00,VWS V14.01,2013-08-08 22:00:00,
2013-08-08 18:02:00,85.0,77.0,29.91,West,267,0.0,0.0,77,0.00,,---,0.00,VWS V14.01,2013-08-08 22:02:00,
2013-08-08 18:07:00,84.6,77.0,29.91,West,267,0.0,0.0,78,0.00,,---,0.00,VWS V14.01,2013-08-08 22:07:00,
2013-08-08 18:12:00,84.0,76.0,29.91,West,267,0.0,0.0,77,0.00,,---,0.00,VWS V14.01,2013-08-08 22:12:00,
2013-08-08 18:17:00,83.7,76.9,29.91,West,267,0.0,0.0,80,0.00,,---,0.00,VWS V14.01,2013-08-08 22:17:00,
2013-08-08 18:23:00,83.2,77.1,29.91,West,267,0.0,0.0,82,0.00,,---,0.00,VWS V14.01,2013-08-08 22:23:00,
2013-08-08 18:28:00,82.8,76.4,29.92,West,267,0.0,0.0,81,0.00,,---,0.00,VWS V14.01,2013-08-08 22:28:00,
2013-08-08 18:30:00,82.6,76.6,29.92,West,267,0.0,0.0,82,0.00,,---,0.00,VWS V14.01,2013-08-08 22:30:00,
2013-08-08 18:33:00,82.4,76.4,29.92,West,267,0.0,0.0,82,0.00,,---,0.00,VWS V14.01,2013-08-08 22:33:00,
2013-08-08 18:38:00,82.0,75.6,29.92,West,267,0.0,0.0,81,0.00,,---,0.00,VWS V14.01,2013-08-08 22:38:00,
2013-08-08 18:43:00,81.8,77.2,29.92,West,267,0.0,0.0,86,0.00,,---,0.00,VWS V14.01,2013-08-08 22:43:00,
2013-08-08 18:48:00,81.2,77.3,29.92,West,267,0.0,0.0,88,0.00,,---,0.00,VWS V14.01,2013-08-08 22:48:00,
2013-08-08 18:53:00,80.7,77.5,29.92,West,267,0.0,0.0,90,0.00,,---,0.00,VWS V14.01,2013-08-08 22:53:00,
2013-08-08 18:58:00,80.4,77.2,29.92,West,267,0.0,0.0,90,0.00,,---,0.00,VWS V14.01,2013-08-08 22:58:00,
2013-08-08 19:00:00,80.3,77.1,29.92,West,267,0.0,0.0,90,0.00,,---,0.00,VWS V14.01,2013-08-08 23:00:00,
2013-08-08 19:04:00,80.2,77.0,29.92,West,267,0.0,0.0,90,0.00,,---,0.00,VWS V14.01,2013-08-08 23:04:00,
2013-08-08 19:08:00,80.0,77.1,29.92,West,267,0.0,0.0,91,0.00,,---,0.00,VWS V14.01,2013-08-08 23:08:00,
2013-08-08 19:15:00,79.5,76.7,29.92,West,267,0.0,0.0,91,0.00,,---,0.00,VWS V14.01,2013-08-08 23:15:00,
2013-08-08 19:20:00,79.4,76.9,29.92,West,267,0.0,0.0,92,0.00,,---,0.00,VWS V14.01,2013-08-08 23:20:00,
2013-08-08 19:25:00,79.2,76.7,29.92,West,267,0.0,0.0,92,0.00,,---,0.00,VWS V14.01,2013-08-08 23:25:00,
2013-08-08 19:30:00,79.2,76.7,29.92,West,267,0.0,0.0,92,0.00,,---,0.00,VWS V14.01,2013-08-08 23:30:00,
2013-08-08 19:35:00,78.9,76.7,29.92,West,267,0.0,0.0,93,0.00,,---,0.00,VWS V14.01,2013-08-08 23:35:00,
2013-08-08 19:40:00,78.6,76.7,29.92,West,267,0.0,0.0,94,0.00,,---,0.00,VWS V14.01,2013-08-08 23:40:00,
2013-08-08 19:45:00,78.4,76.5,29.92,West,267,0.0,0.0,94,0.00,,---,0.00,VWS V14.01,2013-08-08 23:45:00,
2013-08-08 19:50:00,78.2,76.3,29.92,West,267,0.0,0.0,94,0.00,,---,0.00,VWS V14.01,2013-08-08 23:50:00,
2013-08-08 19:55:00,78.1,76.2,29.92,West,267,0.0,0.0,94,0.00,,---,0.00,VWS V14.01,2013-08-08 23:55:00,
2013-08-08 20:00:00,80.3,77.1,29.92,West,267,0.0,0.0,90,0.00,,---,0.00,VWS V14.01,2013-08-09 00:00:00,
2013-08-08 20:01:00,77.9,76.4,29.92,West,267,0.0,0.0,95,0.00,,---,0.00,VWS V14.01,2013-08-09 00:01:00,
2013-08-08 20:06:00,77.9,76.4,29.92,West,267,0.0,0.0,95,0.00,,---,0.00,VWS V14.01,2013-08-09 00:06:00,
2013-08-08 20:11:00,77.6,76.1,29.92,West,267,0.0,0.0,95,0.00,,---,0.00,VWS V14.01,2013-08-09 00:11:00,
2013-08-08 20:16:00,77.3,75.8,29.92,West,267,0.0,0.0,95,0.00,,---,0.00,VWS V14.01,2013-08-09 00:16:00,
2013-08-08 20:21:00,77.1,75.6,29.92,West,267,0.0,0.0,95,0.00,,---,0.00,VWS V14.01,2013-08-09 00:21:00,
2013-08-08 20:26:00,76.9,75.7,29.93,West,267,0.0,0.0,96,0.00,,---,0.00,VWS V14.01,2013-08-09 00:26:00,
2013-08-08 20:30:00,79.2,76.7,29.92,West,267,0.0,0.0,92,0.00,,---,0.00,VWS V14.01,2013-08-09 00:30:00,
2013-08-08 20:31:00,76.8,75.6,29.93,West,267,0.0,0.0,96,0.00,,---,0.00,VWS V14.01,2013-08-09 00:31:00,
2013-08-08 20:36:00,76.7,75.5,29.93,West,267,0.0,0.0,96,0.00,,---,0.00,VWS V14.01,2013-08-09 00:36:00,
2013-08-08 20:41:00,76.6,75.4,29.93,West,267,0.0,0.0,96,0.00,,---,0.00,VWS V14.01,2013-08-09 00:41:00,
2013-08-08 20:46:00,76.5,75.3,29.93,West,267,0.0,0.0,96,0.00,,---,0.00,VWS V14.01,2013-08-09 00:46:00,
2013-08-08 20:51:00,76.4,75.2,29.93,West,267,0.0,0.0,96,0.00,,---,0.00,VWS V14.01,2013-08-09 00:51:00,
2013-08-08 20:56:00,76.3,75.1,29.93,West,267,0.0,0.0,96,0.00,,---,0.00,VWS V14.01,2013-08-09 00:56:00,
2013-08-08 21:00:00,78.0,76.5,29.92,West,267,0.0,0.0,95,0.00,,---,0.00,VWS V14.01,2013-08-09 01:00:00,
2013-08-08 21:01:00,76.1,74.9,29.93,West,267,0.0,0.0,96,0.00,,---,0.00,VWS V14.01,2013-08-09 01:01:00,
2013-08-08 21:06:00,75.9,75.0,29.93,West,267,0.0,0.0,97,0.00,,---,0.00,VWS V14.01,2013-08-09 01:06:00,
2013-08-08 21:11:00,75.9,75.0,29.93,West,267,0.0,0.0,97,0.00,,---,0.00,VWS V14.01,2013-08-09 01:11:00,
2013-08-08 21:16:00,75.7,74.8,29.93,West,267,0.0,0.0,97,0.00,,---,0.00,VWS V14.01,2013-08-09 01:16:00,
2013-08-08 21:22:00,75.6,74.7,29.94,West,267,0.0,0.0,97,0.00,,---,0.00,VWS V14.01,2013-08-09 01:22:00,
2013-08-08 21:27:00,75.5,74.6,29.94,West,267,0.0,0.0,97,0.00,,---,0.00,VWS V14.01,2013-08-09 01:27:00,
2013-08-08 21:30:00,76.8,75.6,29.93,West,267,0.0,0.0,96,0.00,,---,0.00,VWS V14.01,2013-08-09 01:30:00,
2013-08-08 21:32:00,75.4,74.5,29.94,West,267,0.0,0.0,97,0.00,,---,0.00,VWS V14.01,2013-08-09 01:32:00,
2013-08-08 21:37:00,75.2,74.3,29.94,West,267,0.0,0.0,97,0.00,,---,0.00,VWS V14.01,2013-08-09 01:37:00,
2013-08-08 21:42:00,75.1,74.2,29.95,West,267,0.0,0.0,97,0.00,,---,0.00,VWS V14.01,2013-08-09 01:42:00,
2013-08-08 21:47:00,75.1,74.2,29.94,West,267,0.0,0.0,97,0.00,,---,0.00,VWS V14.01,2013-08-09 01:47:00,
2013-08-08 21:52:00,75.0,74.1,29.94,West,267,0.0,0.0,97,0.00,,---,0.00,VWS V14.01,2013-08-09 01:52:00,
2013-08-08 21:57:00,74.9,74.0,29.94,West,267,0.0,0.0,97,0.00,,---,0.00,VWS V14.01,2013-08-09 01:57:00,
2013-08-08 22:00:00,76.1,74.9,29.93,West,267,0.0,0.0,96,0.00,,---,0.00,VWS V14.01,2013-08-09 02:00:00,
2013-08-08 22:02:00,74.8,73.9,29.94,West,267,0.0,0.0,97,0.00,,---,0.00,VWS V14.01,2013-08-09 02:02:00,
2013-08-08 22:07:00,74.6,74.0,29.94,West,267,0.0,0.0,98,0.00,,---,0.00,VWS V14.01,2013-08-09 02:07:00,
2013-08-08 22:12:00,74.5,73.9,29.94,West,267,0.0,0.0,98,0.00,,---,0.00,VWS V14.01,2013-08-09 02:12:00,
2013-08-08 22:18:00,74.5,73.9,29.94,West,267,0.0,0.0,98,0.00,,---,0.00,VWS V14.01,2013-08-09 02:18:00,
2013-08-08 22:23:00,74.5,73.9,29.94,West,267,0.0,0.0,98,0.00,,---,0.00,VWS V14.01,2013-08-09 02:23:00,
2013-08-08 22:28:00,74.3,73.7,29.94,West,267,0.0,0.0,98,0.00,,---,0.00,VWS V14.01,2013-08-09 02:28:00,
2013-08-08 22:30:00,75.5,74.6,29.94,West,267,0.0,0.0,97,0.00,,---,0.00,VWS V14.01,2013-08-09 02:30:00,
2013-08-08 22:33:00,74.3,73.7,29.93,West,267,0.0,0.0,98,0.00,,---,0.00,VWS V14.01,2013-08-09 02:33:00,
2013-08-08 22:38:00,74.2,73.6,29.93,West,267,0.0,0.0,98,0.00,,---,0.00,VWS V14.01,2013-08-09 02:38:00,
2013-08-08 22:43:00,74.1,73.5,29.93,West,267,0.0,0.0,98,0.00,,---,0.00,VWS V14.01,2013-08-09 02:43:00,
2013-08-08 22:48:00,74.0,73.4,29.93,West,267,0.0,0.0,98,0.00,,---,0.00,VWS V14.01,2013-08-09 02:48:00,
2013-08-08 22:53:00,74.0,73.4,29.93,West,267,0.0,0.0,98,0.00,,---,0.00,VWS V14.01,2013-08-09 02:53:00,
2013-08-08 22:58:00,73.9,73.3,29.93,West,267,0.0,0.0,98,0.00,,---,0.00,VWS V14.01,2013-08-09 02:58:00,
2013-08-08 23:00:00,74.9,74.0,29.94,West,267,0.0,0.0,97,0.00,,---,0.00,VWS V14.01,2013-08-09 03:00:00,
2013-08-08 23:03:00,73.7,73.1,29.94,West,267,0.0,0.0,98,0.00,,---,0.00,VWS V14.01,2013-08-09 03:03:00,
2013-08-08 23:08:00,73.6,73.0,29.93,West,267,0.0,0.0,98,0.00,,---,0.00,VWS V14.01,2013-08-09 03:08:00,
2013-08-08 23:13:00,73.5,72.9,29.94,West,267,0.0,0.0,98,0.00,,---,0.00,VWS V14.01,2013-08-09 03:13:00,
2013-08-08 23:18:00,73.6,73.0,29.94,West,267,0.0,0.0,98,0.00,,---,0.00,VWS V14.01,2013-08-09 03:18:00,
2013-08-08 23:23:00,73.5,72.9,29.94,West,267,0.0,0.0,98,0.00,,---,0.00,VWS V14.01,2013-08-09 03:23:00,
2013-08-08 23:29:00,73.4,72.8,29.94,West,267,0.0,0.0,98,0.00,,---,0.00,VWS V14.01,2013-08-09 03:29:00,
2013-08-08 23:30:00,74.3,73.7,29.93,West,267,0.0,0.0,98,0.00,,---,0.00,VWS V14.01,2013-08-09 03:30:00,
2013-08-08 23:34:00,73.3,72.7,29.93,West,267,0.0,0.0,98,0.00,,---,0.00,VWS V14.01,2013-08-09 03:34:00,
2013-08-08 23:39:00,73.2,72.6,29.93,West,267,0.0,0.0,98,0.00,,---,0.00,VWS V14.01,2013-08-09 03:39:00,
2013-08-08 23:44:00,73.2,72.6,29.94,West,267,0.0,0.0,98,0.00,,---,0.00,VWS V14.01,2013-08-09 03:44:00,
2013-08-08 23:49:00,73.1,72.5,29.93,West,267,0.0,0.0,98,0.00,,---,0.00,VWS V14.01,2013-08-09 03:49:00,
2013-08-08 23:54:00,72.9,72.3,29.94,West,267,0.0,0.0,98,0.00,,---,0.00,VWS V14.01,2013-08-09 03:54:00,
2013-08-08 23:59:00,73.0,72.4,29.93,West,267,0.0,0.0,98,0.00,,---,0.00,VWS V14.01,2013-08-09 03:59:00,